Regional Weather Roundup
Issued by NWS

Home | Current Version | Previous Version | Graphics & Text | Print | Product List | Glossary On
Versions: 1 2 3 4 5 6 7 8 9 10 11 12 13 14 15 16 17 18 19 20 21 22 23 24 25 26 27 28 29 30 31 32 33 34 35 36 37 38 39 40 41 42 43 44 45 46 47 48 49 50
000
ASUS43 KIND 241309
RWRIN

WEATHER ROUNDUP FOR INDIANA
NATIONAL WEATHER SERVICE INDIANAPOLIS IN
900 AM EDT TUE MAY 24 2016

NOTE: "FAIR" INDICATES FEW OR NO CLOUDS BELOW 12,000 FEET WITH NO
SIGNIFICANT WEATHER AND/OR OBSTRUCTIONS TO VISIBILITY.

* - STATION DOES NOT REPORT WEATHER SUCH AS PRECIPITATION OR FOG.

+ - STATION NOT QUALITY CONTROLLED BY THE NATIONAL WEATHER SERVICE.
    USE DATA WITH CAUTION...ESPECIALLY DEWPOINT AND RELATIVE
    HUMIDITY OBSERVATIONS.

INZ001>003-010>013-019-020-241400-
NORTHWEST INDIANA

CITY           SKY/WX    TMP DP  RH WIND       PRES   REMARKS
GARY /AIRPORT/ MOSUNNY   68  55  64 S6        30.03R
KNOX *+        PTSUNNY   64  34  32 SW6       30.04S
LA PORTE +     CLOUDY    68  47  47 SW7       30.05R
MICHIGAN CITY+ CLOUDY    68  46  45 SW8       30.04R
MONTICELLO +   CLOUDY    65  41  42 S3        30.05R HAZE
RENSSELAER +   MOSUNNY   68  45  42 S8        30.05R
VALPARAISO     CLOUDY    67  47  48 SW7       30.05R

$$

LMZ046-743>745-241400-
SOUTHERN LAKE MICHIGAN

STATION/POSITION TIME  TEMP    WIND        PRES    WAVE
                       AIR SEA DIR/SP/G            HT
                 (UTC) (F)     (DEG/KT/KT) (MB)    (FT)
BURNS HARBOR     1200   67     190/ 11/ 15 1016.6R
MICHIGAN CITY    1200   67     180/ 10/ 13   N/A
5NW MICH CITY    1300   60 56  210/  4/  6   N/A     1

$$

INZ004-005-014>016-021>024-241400-
NORTH CENTRAL INDIANA

CITY           SKY/WX    TMP DP  RH WIND       PRES   REMARKS
ELKHART        SUNNY     64  50  59 MISG      30.05R
GOSHEN         SUNNY     66  44  45 SW10      30.05R
LOGANSPORT +   SUNNY     66  45  45 SW9       30.07R
ROCHESTER +    SUNNY     68  46  45 SW8       30.07R
SOUTH BEND     SUNNY     67  46  47 SW9       30.04S
WARSAW +       SUNNY     64  45  48 S5        30.06S

$$

INZ006>009-017-018-025>027-241400-
NORTHEAST INDIANA

CITY           SKY/WX    TMP DP  RH WIND       PRES   REMARKS
ANGOLA *+      SUNNY     66  57  72 SW5       30.06R
AUBURN +       SUNNY     63  45  51 SW5       30.08R
FORT WAYNE     MOSUNNY   65  49  56 SW9       30.08R
HUNTINGTON +   SUNNY     64  49  57 SW3       30.07R

$$

INZ028-029-035-036-043>045-051>053-241400-
WEST CENTRAL INDIANA

CITY           SKY/WX    TMP DP  RH WIND       PRES   REMARKS
CRAWFORDSVL +  MOSUNNY   64  47  54 S8        30.07R
GREENCASTLE +  SUNNY     63  54  72 S3        30.09R
LAFAYETTE      MOSUNNY   66  48  52 S5        30.06R
TERRE HAUTE    MOSUNNY   64  50  60 S5        30.07R

$$

INZ030>032-037>040-046>048-054>057-064-065-241400-
CENTRAL INDIANA

CITY           SKY/WX    TMP DP  RH WIND       PRES   REMARKS
ANDERSON       SUNNY     64  52  63 CALM      30.10
CP ATTERBURY + SUNNY     61  54  77 CALM      30.10S
COLUMBUS       SUNNY     59  55  88 CALM      30.10R
FISHERS *+     SUNNY     66  54  63 E5        30.09R
FRANKFORT +      N/A     68  34  28 SW5       30.08S
INDIANAPOLIS   PTSUNNY   64  51  62 S6        30.08R
-EAGLE CREEK   SUNNY     64  50  60 S3        30.08R
KOKOMO *+      SUNNY     68  48  49 S9        30.07R
MARION +       SUNNY     64  49  57 CALM      30.09R
SHELBYVILLE    SUNNY     66  53  63 S7        30.09R
ZIONSVILLE +   SUNNY     64  50  61 S5        30.09R

$$

INZ033-034-041-042-049-050-058-059-241400-
EAST CENTRAL INDIANA

CITY           SKY/WX    TMP DP  RH WIND       PRES   REMARKS
MUNCIE         SUNNY     68  49  50 SW7       30.09R

$$

INZ060-061-067>069-081>083-085>088-241400-
SOUTHWEST INDIANA

CITY           SKY/WX    TMP DP  RH WIND       PRES   REMARKS
EVANSVILLE     MOSUNNY   66  52  60 CALM      30.08R
HUNTINGBURG *+ MOSUNNY   64  52  63 S3        30.09R
WASHINGTON +   MOSUNNY   64  53  67 S6        30.07R

$$

INZ062-063-066-070>080-084-089>092-241400-
SOUTH CENTRAL AND SOUTHEAST INDIANA

CITY           SKY/WX    TMP DP  RH WIND       PRES   REMARKS
BLOOMINGTON    SUNNY     63  50  62 SE6       30.09R
MADISON *+     SUNNY     64  54  68 S3        30.13R
NORTH VERNON + SUNNY     66  61  82 CALM      30.11R
SEYMOUR +      SUNNY     63  54  72 CALM      30.11R

$$





USA.gov is the U.S. government's official web portal to all federal, state and local government web resources and services.